Wind_Speed
16 18 19 19 19 22 25 28 32 35 38 41 43 46 50 53 57 59 61 64 65 65 64 62 59 58 56 55 53 53 51 50 48 46 44 42 40 39 39 40 43 47 51 57
16 19 20 19 20 24 27 30 32 35 38 41 44 47 50 54 57 60 61 62 61 60 58 56 54 54 53 53 53 53 52 51 50 48 46 43 41 39 38 38 39 40 42 44
17 20 21 21 24 28 31 33 36 39 42 45 47 49 53 57 59 61 60 59 56 54 53 52 53 54 55 55 55 55 55 54 53 51 49 47 45 42 41 40 40 39 38 38
22 25 26 27 30 33 36 38 40 43 46 49 51 53 55 58 59 58 56 53 51 51 52 54 56 57 58 58 57 57 56 55 54 52 50 49 47 45 43 40 38 38 38 37
27 29 31 32 33 36 39 41 43 45 48 50 53 53 53 56 57 55 51 51 52 53 55 57 58 59 58 57 56 56 55 54 52 51 50 49 47 45 43 42 40 39 38 37
27 29 32 33 35 38 40 42 45 47 50 53 56 57 56 57 54 50 50 51 53 55 56 58 58 58 57 55 54 53 51 50 50 49 48 47 46 45 43 42 41 39 38 37
27 30 32 35 38 39 41 44 47 50 54 57 58 59 59 55 50 48 50 52 54 56 57 58 57 56 55 54 52 51 48 46 44 43 43 43 43 43 43 42 41 39 39 38
29 32 34 36 38 41 43 46 50 52 55 57 57 58 56 52 48 48 50 52 54 55 56 56 56 55 53 51 48 46 44 41 39 37 37 38 38 39 40 39 39 38 38 37
29 32 34 37 41 44 46 48 50 52 54 56 57 56 53 49 47 48 50 52 54 56 56 55 54 52 51 47 45 42 38 35 32 30 29 30 31 33 35 35 35 35 35 34
28 31 35 38 40 42 44 46 49 51 54 55 56 55 51 48 47 47 49 51 54 56 56 54 52 50 48 46 42 38 34 30 27 24 23 22 23 25 27 28 29 29 30 30
28 31 34 36 38 40 43 46 48 50 53 55 56 55 51 47 46 47 48 50 53 55 54 53 51 48 45 43 39 35 31 26 22 18 16 15 15 17 19 21 24 25 25 25
29 31 33 36 38 41 44 47 49 51 53 54 55 54 50 46 45 46 47 50 53 54 53 52 50 46 44 41 37 34 30 25 19 14 9 6 7 9 13 16 19 21 22 23
29 31 34 37 39 42 45 47 50 51 53 54 54 53 49 45 44 45 46 49 52 53 52 51 48 45 44 41 37 33 30 26 20 14 8 3 1 5 8 12 15 17 19 20
29 31 33 36 39 42 44 47 49 51 52 53 53 52 49 45 42 43 45 48 50 52 51 49 46 45 43 41 37 33 29 26 22 17 13 9 6 5 7 8 11 13 15 17
29 31 33 36 39 42 44 47 49 50 51 52 52 51 49 44 41 42 44 46 48 50 50 49 46 44 42 39 35 33 29 26 23 20 17 13 10 8 7 7 8 10 12 14
31 32 34 36 39 42 44 46 48 50 51 51 52 51 49 45 41 40 41 44 46 47 48 48 46 44 42 39 35 32 29 26 23 21 18 16 13 11 9 8 8 9 10 12
31 32 34 36 38 42 44 47 49 51 51 51 51 51 49 45 40 38 39 41 43 45 46 47 45 43 41 39 36 33 30 28 25 22 20 18 16 15 13 11 11 11 11 13
32 33 34 36 38 41 44 47 48 50 51 51 51 50 48 45 40 36 36 37 39 41 43 44 44 43 41 38 35 33 30 28 26 24 22 20 19 18 17 16 16 16 17 18
32 33 35 36 39 42 44 46 48 49 50 50 50 50 48 45 40 36 34 34 36 37 39 40 42 42 40 38 35 32 30 28 26 25 24 22 21 20 20 19 19 19 20 22
32 33 35 37 39 42 44 46 47 49 49 49 49 48 47 44 40 35 33 32 33 34 35 36 37 38 38 37 35 33 31 29 27 26 24 23 21 21 20 20 21 22 24 26
32 34 36 38 40 42 44 45 47 48 48 49 48 47 46 44 40 35 31 29 29 30 31 32 33 33 34 34 33 32 30 29 28 26 25 24 23 23 23 23 24 24 26 28
34 35 37 39 41 42 44 45 46 47 47 47 47 45 44 42 40 36 31 28 26 26 27 27 28 29 30 31 31 30 30 29 27 27 26 25 25 25 25 25 25 26 27 29
36 37 38 40 41 42 44 44 45 45 46 46 45 44 43 41 38 35 31 27 24 23 22 23 24 25 25 26 26 27 27 27 26 26 25 25 25 25 25 25 26 27 28 28
39 39 40 41 42 42 43 44 44 44 45 45 44 42 41 40 39 35 31 27 23 20 19 19 20 20 20 21 22 23 23 24 24 23 23 24 24 23 23 23 24 25 25 25
41 41 41 41 42 42 43 43 43 43 44 44 43 41 39 38 37 35 31 27 23 19 17 17 16 16 16 16 17 17 18 19 19 19 19 19 19 19 20 20 21 21 21 22
41 41 42 42 42 42 42 42 41 41 42 41 40 39 38 37 36 34 31 27 23 19 16 15 14 12 12 12 12 12 13 14 14 14 15 15 15 15 16 17 17 18 18 18
41 42 43 43 43 42 41 41 40 39 40 39 38 36 35 34 34 33 31 28 23 19 15 13 12 11 10 9 9 8 9 9 9 9 10 11 11 12 12 12 13 14 14 16
Wind_Direction
340 340 343 339 330 326 324 324 324 324 323 323 323 322 321 319 318 317 316 314 312 310 309 307 306 305 303 302 300 298 296 294 292 290 288 285 279 273 268 261 255 252 250 247
343 343 347 345 335 328 325 325 325 325 325 325 325 324 323 320 318 317 315 314 313 312 311 309 308 306 304 301 298 295 293 290 288 285 283 280 276 273 268 263 259 256 252 250
345 345 343 341 335 331 329 331 332 331 329 328 328 327 325 322 320 319 318 317 316 315 313 311 308 306 303 301 297 294 292 289 285 282 278 275 272 270 268 264 260 257 255 253
344 342 343 342 338 336 335 335 335 333 332 332 331 330 328 324 322 321 320 320 319 318 316 313 310 307 304 301 298 294 291 288 284 280 276 272 269 268 265 262 259 257 253 251
341 340 339 339 339 338 336 337 336 335 335 333 331 330 329 326 325 324 325 324 323 321 318 316 312 309 306 303 300 296 292 288 283 279 275 271 267 264 262 259 256 255 254 251
333 334 337 338 338 339 337 336 336 336 335 335 334 334 333 330 329 328 327 326 325 323 321 319 316 313 311 308 304 300 295 290 285 279 274 269 265 261 259 256 254 253 251 250
331 334 336 338 339 338 337 339 338 339 339 339 337 335 333 332 331 329 329 329 328 326 325 323 321 319 317 313 308 304 298 294 288 281 274 268 263 259 256 253 251 250 248 248
332 335 337 337 337 340 341 341 341 341 339 338 337 335 334 333 333 332 333 333 332 331 330 328 326 324 323 320 315 311 305 298 292 284 275 267 262 257 253 251 248 247 245 244
331 333 335 338 342 343 343 342 341 339 339 339 339 338 337 336 335 335 336 336 336 336 336 334 332 331 329 327 324 320 314 306 299 289 279 270 262 255 249 246 244 243 240 237
330 334 339 342 342 342 341 340 339 339 340 341 341 340 339 339 338 338 339 340 341 341 341 340 339 338 337 335 333 330 325 317 307 297 285 272 261 251 243 238 235 234 231 230
333 337 339 339 340 341 341 340 340 341 342 343 343 343 342 341 342 342 344 345 346 346 347 347 347 347 347 346 344 342 339 334 324 310 295 276 259 243 232 225 221 220 221 221
334 336 337 339 340 342 342 342 342 343 344 345 345 345 344 344 345 347 348 349 350 351 352 353 354 355 355 355 354 354 353 351 346 336 321 291 250 227 215 209 209 210 211 212
332 335 337 339 341 342 343 343 344 345 345 347 347 347 347 346 347 349 351 352 354 356 357 358 0 2 2 3 4 6 8 10 12 15 18 21 149 185 191 193 197 201 204 208
331 334 337 339 340 341 343 344 345 346 346 347 349 349 348 348 349 351 353 355 357 359 1 3 4 6 7 9 12 15 18 22 26 34 43 57 84 117 151 174 186 193 198 200
331 334 336 337 339 341 343 344 346 347 347 349 350 351 351 350 350 353 356 358 360 2 5 7 8 10 12 14 16 19 23 29 35 42 48 59 72 89 114 141 163 175 184 189
329 332 334 336 338 340 342 344 346 347 349 350 352 352 352 351 351 354 356 358 2 5 8 10 12 14 16 17 20 23 27 31 36 41 49 57 64 76 91 107 128 151 169 177
327 330 332 335 336 338 340 343 346 348 350 351 352 353 353 352 352 353 356 359 3 6 10 13 15 18 20 22 24 27 31 35 40 45 50 56 64 73 81 92 105 119 133 145
325 327 330 332 335 337 340 343 345 348 350 351 352 353 354 353 353 354 357 1 4 7 11 15 18 21 23 25 28 32 35 39 44 48 52 58 65 72 78 87 95 104 116 125
324 326 328 331 334 336 339 341 344 347 349 350 351 352 353 354 354 354 357 0 4 8 12 16 20 24 27 29 31 34 37 41 45 49 55 60 65 72 79 84 92 99 107 116
322 324 326 329 332 335 337 340 343 345 348 349 350 351 353 354 354 354 355 358 2 7 12 16 21 25 29 32 35 39 42 46 49 53 57 61 66 72 78 84 93 99 106 113
319 322 324 327 330 332 334 337 340 343 346 347 348 350 352 353 354 355 354 355 359 4 10 15 20 25 30 33 37 41 45 49 52 55 59 63 69 76 82 89 96 103 109 114
316 319 322 324 327 328 331 334 337 340 343 345 346 348 351 352 352 353 354 355 356 1 7 13 18 25 30 34 38 41 45 49 54 58 62 67 73 80 86 92 98 103 110 114
311 314 317 320 322 324 327 330 333 336 339 341 343 345 348 351 352 352 352 353 353 357 3 9 15 22 28 34 37 41 44 48 54 60 65 70 77 83 89 94 99 104 108 112
306 309 312 315 317 320 323 326 329 332 335 338 340 343 346 349 351 351 351 352 351 352 358 4 10 16 25 32 37 41 45 49 55 62 67 71 76 82 88 93 99 104 108 111
301 303 307 310 313 316 319 322 325 328 331 334 337 339 342 346 348 349 349 349 349 348 350 356 3 10 18 26 32 39 44 50 54 60 66 72 77 82 88 95 100 105 109 111
297 300 303 306 309 311 314 317 320 323 327 330 333 335 338 342 345 348 348 347 346 345 343 346 353 359 6 14 22 30 39 47 54 58 65 72 78 84 92 99 103 108 112 115
294 298 300 302 304 306 309 312 315 319 322 326 329 331 334 337 341 345 346 346 344 342 339 337 339 342 345 353 4 15 26 36 48 58 67 76 83 90 98 106 112 117 120 123
Height
5848 5846 5843 5840 5836 5832 5829 5824 5819 5814 5807 5801 5794 5786 5778 5768 5758 5749 5739 5729 5718 5708 5698 5688 5679 5670 5662 5654 5646 5639 5632 5627 5623 5620 5617 5615 5613 5612 5612 5612 5614 5616 5619 5624
5848 5844 5842 5838 5834 5829 5825 5820 5815 5809 5802 5795 5787 5779 5769 5758 5748 5738 5727 5716 5705 5694 5683 5674 5665 5656 5648 5640 5632 5625 5618 5613 5608 5604 5602 5600 5599 5598 5598 5599 5599 5601 5603 5606
5846 5843 5840 5836 5831 5825 5819 5813 5808 5800 5794 5785 5777 5768 5758 5745 5734 5722 5711 5700 5690 5680 5670 5660 5650 5641 5632 5624 5616 5608 5602 5596 5591 5588 5585 5584 5583 5583 5584 5584 5586 5587 5589 5592
5842 5839 5835 5834 5826 5819 5812 5806 5799 5792 5784 5774 5765 5757 5746 5733 5721 5710 5698 5687 5677 5667 5657 5646 5636 5625 5615 5606 5597 5589 5582 5577 5572 5569 5567 5566 5566 5567 5568 5570 5571 5573 5576 5579
5837 5834 5830 5826 5820 5813 5806 5799 5792 5784 5775 5766 5757 5748 5738 5723 5709 5697 5685 5675 5664 5653 5642 5631 5619 5607 5596 5586 5577 5569 5562 5556 5552 5548 5547 5547 5547 5549 5551 5554 5556 5559 5563 5566
5835 5830 5826 5822 5815 5807 5801 5793 5785 5776 5767 5757 5745 5733 5724 5711 5698 5686 5675 5664 5653 5641 5628 5615 5602 5590 5578 5567 5557 5549 5541 5535 5531 5528 5526 5527 5528 5531 5534 5537 5541 5545 5549 5553
5831 5826 5821 5815 5808 5802 5796 5788 5778 5767 5756 5745 5734 5723 5712 5700 5689 5677 5666 5655 5642 5629 5615 5601 5587 5574 5562 5550 5539 5530 5522 5516 5511 5508 5507 5507 5509 5513 5517 5521 5526 5530 5535 5540
5826 5821 5817 5810 5803 5796 5788 5778 5768 5758 5749 5739 5728 5716 5703 5691 5680 5669 5658 5646 5632 5618 5604 5589 5573 5560 5547 5534 5523 5513 5504 5498 5494 5490 5489 5490 5492 5496 5500 5505 5511 5516 5521 5527
5822 5818 5811 5803 5795 5787 5778 5770 5762 5754 5744 5733 5721 5709 5696 5684 5673 5661 5649 5637 5623 5609 5594 5579 5563 5548 5535 5522 5510 5500 5491 5484 5479 5476 5475 5476 5478 5481 5486 5491 5498 5503 5509 5515
5818 5811 5805 5797 5790 5784 5776 5768 5759 5749 5738 5727 5714 5701 5689 5677 5666 5654 5643 5630 5616 5601 5586 5571 5555 5540 5525 5512 5501 5490 5481 5474 5469 5466 5465 5465 5467 5470 5474 5480 5487 5493 5499 5505
5813 5808 5802 5796 5789 5782 5773 5764 5754 5744 5733 5720 5708 5695 5682 5671 5660 5648 5637 5624 5610 5594 5579 5564 5549 5534 5520 5507 5495 5485 5476 5468 5463 5460 5458 5458 5460 5463 5467 5472 5479 5485 5491 5497
5808 5803 5798 5791 5784 5776 5768 5758 5748 5738 5727 5715 5702 5689 5677 5666 5655 5644 5632 5619 5606 5591 5575 5560 5546 5532 5518 5506 5494 5484 5475 5467 5461 5458 5456 5456 5458 5461 5464 5469 5474 5480 5486 5492
5804 5798 5792 5785 5778 5770 5762 5753 5743 5732 5721 5710 5697 5685 5673 5661 5651 5640 5629 5617 5603 5589 5574 5559 5546 5532 5520 5507 5496 5486 5477 5470 5464 5460 5459 5458 5459 5461 5464 5468 5473 5478 5483 5488
5799 5793 5787 5781 5774 5767 5759 5749 5739 5728 5717 5706 5694 5682 5670 5658 5648 5638 5627 5615 5602 5588 5574 5560 5547 5535 5523 5511 5501 5492 5483 5476 5471 5467 5464 5463 5463 5465 5467 5470 5473 5477 5481 5485
5793 5788 5783 5776 5769 5762 5754 5745 5736 5725 5715 5703 5691 5679 5667 5656 5646 5637 5626 5615 5603 5590 5577 5563 5551 5539 5527 5517 5507 5499 5491 5484 5479 5475 5472 5470 5470 5470 5471 5472 5475 5477 5480 5484
5788 5783 5777 5771 5765 5758 5750 5742 5732 5722 5711 5700 5688 5677 5665 5654 5645 5635 5626 5616 5605 5593 5581 5568 5555 5544 5533 5523 5514 5506 5499 5493 5488 5484 5480 5478 5477 5476 5476 5477 5478 5479 5481 5484
5783 5778 5773 5767 5761 5754 5746 5737 5728 5718 5707 5696 5686 5675 5664 5654 5644 5636 5627 5617 5607 5596 5585 5573 5561 5550 5540 5531 5522 5514 5508 5502 5497 5493 5489 5487 5485 5483 5483 5482 5483 5483 5485 5487
5778 5773 5768 5762 5756 5749 5742 5733 5724 5714 5704 5694 5683 5673 5663 5653 5644 5636 5627 5619 5610 5600 5590 5579 5568 5558 5548 5539 5531 5524 5517 5512 5507 5503 5499 5496 5494 5492 5491 5490 5490 5490 5491 5492
5771 5767 5762 5756 5750 5744 5736 5729 5720 5711 5701 5692 5682 5672 5662 5653 5643 5635 5628 5621 5613 5605 5595 5585 5576 5566 5557 5548 5540 5533 5527 5521 5517 5512 5509 5506 5503 5501 5500 5499 5499 5499 5499 5501
5765 5761 5756 5750 5745 5739 5732 5724 5716 5708 5699 5690 5681 5671 5662 5653 5644 5636 5628 5621 5615 5607 5599 5591 5583 5574 5566 5558 5550 5544 5537 5532 5527 5523 5519 5516 5513 5511 5510 5509 5508 5508 5510 5512
5759 5754 5750 5744 5739 5733 5727 5720 5713 5705 5696 5688 5679 5670 5661 5652 5643 5636 5629 5623 5617 5610 5603 5596 5589 5582 5574 5567 5560 5554 5548 5543 5538 5534 5530 5527 5524 5522 5521 5520 5520 5520 5521 5523
5752 5748 5743 5738 5733 5728 5722 5715 5708 5701 5694 5685 5677 5669 5661 5652 5643 5635 5629 5623 5618 5612 5607 5601 5594 5588 5581 5576 5570 5564 5559 5554 5549 5545 5541 5538 5536 5534 5533 5532 5532 5533 5534 5536
5745 5741 5737 5732 5727 5722 5716 5710 5703 5697 5690 5683 5675 5667 5659 5651 5644 5636 5629 5624 5618 5613 5609 5603 5598 5593 5588 5583 5578 5573 5569 5564 5560 5556 5553 5550 5548 5547 5545 5545 5545 5545 5547 5548
5736 5733 5729 5725 5721 5716 5710 5705 5698 5692 5685 5679 5671 5664 5657 5649 5642 5635 5628 5623 5618 5613 5609 5605 5601 5597 5593 5589 5585 5581 5577 5573 5570 5567 5564 5561 5559 5558 5557 5557 5557 5557 5558 5560
5727 5724 5721 5717 5713 5709 5704 5699 5693 5687 5681 5674 5667 5661 5654 5648 5641 5634 5628 5622 5617 5613 5610 5606 5603 5599 5596 5593 5589 5586 5583 5580 5577 5575 5573 5571 5569 5568 5567 5567 5567 5567 5568 5570
5716 5714 5712 5709 5705 5701 5697 5692 5687 5682 5676 5670 5664 5657 5651 5645 5639 5632 5626 5621 5616 5612 5609 5606 5603 5600 5598 5595 5593 5590 5587 5585 5583 5581 5579 5578 5577 5576 5575 5575 5575 5576 5576 5578
5706 5704 5701 5699 5696 5693 5689 5685 5681 5676 5670 5665 5660 5654 5648 5642 5636 5630 5624 5619 5614 5610 5607 5605 5602 5600 5598 5596 5594 5592 5590 5588 5587 5585 5584 5583 5582 5581 5581 5581 5581 5582 5583 5583